Himsel Army Airfld, Nineveh,, IN

11:53 AM EDT on June 23, 2017 (GMT -0400)
Himsel Army Airfld, Nineveh,

Weather History for K1II - March, 2014

Change the Weather History Date:

Thursday, March 20, 2014

  Actual Average (KBAK) Record (KBAK)
Temperature  
Mean Temperature 42 °F -  
Max Temperature 55 °F 50 °F 82 °F (2012)
Min Temperature 28 °F 33 °F 26 °F (2009)
Degree Days  
Heating Degree Days 24    
Moisture  
Dew Point 28 °F    
Average Humidity 59    
Maximum Humidity 81    
Minimum Humidity 35    
Precipitation  
Precipitation 0.00 in - - ()
Sea Level Pressure  
Sea Level Pressure 30.06 in    
Wind  
Wind Speed 9 mph (West)    
Max Wind Speed 20 mph    
Max Gust Speed 28 mph    
Visibility 10 miles    
Events      
Averages and records for this station are not official NWS values.
T = Trace of Precipitation, MM = Missing Value Source: NWS Daily Summary

Daily Weather History Graph

Daily Weather History Graph

Search for Another Location

Airport or City:

Trip Planner

Search our weather history database for the weather conditions in past years. The results will help you decide how hot, cold, wet, or windy it might be!

Date:

Astronomy

Mar. 20, 2014 Rise Set
Actual Time 7:47 AM EDT 7:56 PM EDT
Civil Twilight 7:20 AM EDT 8:22 PM EDT
Nautical Twilight 6:49 AM EDT 8:54 PM EDT
Astronomical Twilight 6:17 AM EDT 9:26 PM EDT
Moon No Moon Rise 9:54 AM EDT (3/20)
Length of Visible Light 13h 02m
Length of Day
12h 08m
Waning Gibbous, 84% of the Moon is Illuminated
Mar 20
Waning Gibbous
Mar 23
Last Quarter
Mar 30
New
Apr 7
First Quarter
Apr 15
Full

Hourly Weather History & Observations

Time (EDT) Temp. Windchill Dew Point Humidity Pressure Visibility Wind Dir Wind Speed Gust Speed Precip Events Conditions
12:15 AM 37.4 °F 32.8 °F 28.4 °F 70% 30.08 in 10.0 mi West 5.8 mph - N/A   Unknown
12:35 AM 37.4 °F 28.2 °F 28.4 °F 70% 30.08 in 10.0 mi West 16.1 mph 19.6 mph N/A   Unknown
12:55 AM 35.6 °F 27.1 °F 28.4 °F 75% 30.09 in 10.0 mi WNW 12.7 mph 24.2 mph N/A   Unknown
1:15 AM 35.6 °F 28.6 °F 28.4 °F 75% 30.09 in 10.0 mi WNW 9.2 mph 18.4 mph N/A   Unknown
1:35 AM 35.6 °F 27.1 °F 26.6 °F 70% 30.08 in 10.0 mi WNW 12.7 mph 23.0 mph N/A   Unknown
2:15 AM 35.6 °F 29.9 °F 28.4 °F 75% 30.08 in 10.0 mi West 6.9 mph - N/A   Unknown
2:35 AM 35.6 °F 29.9 °F 28.4 °F 75% 30.08 in 10.0 mi West 6.9 mph - N/A   Unknown
2:55 AM 35.6 °F 29.9 °F 28.4 °F 75% 30.08 in 10.0 mi West 6.9 mph - N/A   Unknown
3:15 AM 35.6 °F 26.6 °F 26.6 °F 70% 30.08 in 10.0 mi WNW 13.8 mph 18.4 mph N/A   Unknown
3:35 AM 35.6 °F 27.1 °F 26.6 °F 70% 30.08 in 10.0 mi WNW 12.7 mph 19.6 mph N/A   Unknown
3:55 AM 35.6 °F 27.1 °F 26.6 °F 70% 30.08 in 10.0 mi WNW 12.7 mph 17.3 mph N/A   Unknown
4:15 AM 35.6 °F 28.6 °F 26.6 °F 70% 30.08 in 10.0 mi WNW 9.2 mph - N/A   Unknown
4:35 AM 33.8 °F 24.8 °F 26.6 °F 75% 30.08 in 10.0 mi WNW 12.7 mph 16.1 mph N/A   Unknown
4:55 AM 33.8 °F 25.3 °F 24.8 °F 70% 30.08 in 10.0 mi WNW 11.5 mph 18.4 mph N/A   Unknown
5:15 AM 33.8 °F 28.6 °F 24.8 °F 70% 30.08 in 10.0 mi West 5.8 mph - N/A   Unknown
5:35 AM 32.0 °F 28.7 °F 23.0 °F 69% 30.09 in 10.0 mi West 3.5 mph - N/A   Unknown
5:55 AM 32.0 °F 28.7 °F 24.8 °F 75% 30.09 in 10.0 mi West 3.5 mph - N/A   Unknown
6:15 AM 32.0 °F 27.5 °F 24.8 °F 75% 30.10 in 10.0 mi WSW 4.6 mph - N/A   Unknown
6:35 AM 32.0 °F 27.5 °F 24.8 °F 75% 30.10 in 10.0 mi WSW 4.6 mph - N/A   Unknown
6:55 AM 30.2 °F 25.4 °F 23.0 °F 75% 30.11 in 10.0 mi SW 4.6 mph - N/A   Unknown
7:15 AM 30.2 °F 23.4 °F 23.0 °F 75% 30.11 in 10.0 mi WSW 6.9 mph - N/A   Unknown
7:35 AM 30.2 °F 25.4 °F 24.8 °F 80% 30.11 in 10.0 mi WSW 4.6 mph - N/A   Unknown
7:55 AM 28.4 °F 22.2 °F 23.0 °F 80% 30.12 in 10.0 mi WSW 5.8 mph - N/A   Unknown
8:15 AM 30.2 °F 25.4 °F 24.8 °F 80% 30.12 in 10.0 mi SW 4.6 mph - N/A   Unknown
8:35 AM 32.0 °F 26.4 °F 26.6 °F 80% 30.12 in 10.0 mi SW 5.8 mph - N/A   Unknown
8:55 AM 32.0 °F 27.5 °F 26.6 °F 80% 30.12 in 10.0 mi SW 4.6 mph - N/A   Unknown
9:15 AM 33.8 °F 28.6 °F 28.4 °F 81% 30.12 in 10.0 mi SW 5.8 mph - N/A   Unknown
9:35 AM 35.6 °F 29.2 °F 28.4 °F 75% 30.12 in 10.0 mi SW 8.1 mph - N/A   Unknown
9:55 AM 37.4 °F 30.8 °F 28.4 °F 70% 30.13 in 10.0 mi WSW 9.2 mph - N/A   Unknown
10:15 AM 37.4 °F 30.8 °F 28.4 °F 70% 30.13 in 10.0 mi WSW 9.2 mph - N/A   Unknown
10:35 AM 39.2 °F 32.5 °F 28.4 °F 65% 30.13 in 10.0 mi WSW 10.4 mph - N/A   Unknown
10:55 AM 41.0 °F 36.4 °F 28.4 °F 61% 30.13 in 10.0 mi WSW 6.9 mph - N/A   Unknown
11:15 AM 42.8 °F 38.6 °F 28.4 °F 57% 30.13 in 10.0 mi WSW 6.9 mph - N/A   Unknown
11:35 AM 44.6 °F 39.7 °F 28.4 °F 53% 30.13 in 10.0 mi WSW 9.2 mph - N/A   Unknown
11:55 AM 44.6 °F 41.4 °F 28.4 °F 53% 30.13 in 10.0 mi WSW 5.8 mph - N/A   Unknown
12:15 PM 46.4 °F 42.9 °F 28.4 °F 50% 30.12 in 10.0 mi West 6.9 mph - N/A   Unknown
12:35 PM 46.4 °F 44.3 °F 28.4 °F 50% 30.11 in 10.0 mi WSW 4.6 mph 16.1 mph N/A   Unknown
12:55 PM 48.2 °F - 28.4 °F 46% 30.10 in 10.0 mi SSW 9.2 mph - N/A   Unknown
1:15 PM 50.0 °F - 28.4 °F 43% 30.09 in 10.0 mi SW 10.4 mph 16.1 mph N/A   Unknown
1:35 PM 50.0 °F - 28.4 °F 43% 30.08 in 10.0 mi WSW 13.8 mph - N/A   Unknown
1:55 PM 51.8 °F - 28.4 °F 41% 30.07 in 10.0 mi SW 15.0 mph 21.9 mph N/A   Unknown
2:15 PM 53.6 °F - 28.4 °F 38% 30.06 in 10.0 mi West 9.2 mph 24.2 mph N/A   Unknown
2:35 PM 53.6 °F - 26.6 °F 35% 30.05 in 10.0 mi West 15.0 mph 21.9 mph N/A   Unknown
2:55 PM 53.6 °F - 26.6 °F 35% 30.04 in 10.0 mi WSW 15.0 mph 27.6 mph N/A   Unknown
3:15 PM 53.6 °F - 26.6 °F 35% 30.02 in 10.0 mi West 13.8 mph 21.9 mph N/A   Unknown
3:35 PM 53.6 °F - 28.4 °F 38% 30.01 in 10.0 mi WSW 19.6 mph 26.5 mph N/A   Unknown
3:55 PM 55.4 °F - 28.4 °F 36% 30.01 in 10.0 mi West 16.1 mph 26.5 mph N/A   Unknown
4:15 PM 55.4 °F - 28.4 °F 36% 30.01 in 10.0 mi West 13.8 mph 24.2 mph N/A   Unknown
4:35 PM 53.6 °F - 28.4 °F 38% 30.01 in 10.0 mi West 13.8 mph 20.7 mph N/A   Unknown
4:55 PM 53.6 °F - 30.2 °F 41% 30.01 in 10.0 mi West 12.7 mph 24.2 mph N/A   Unknown
5:15 PM 53.6 °F - 30.2 °F 41% 30.01 in 10.0 mi West 9.2 mph 17.3 mph N/A   Unknown
5:35 PM 53.6 °F - 30.2 °F 41% 30.00 in 10.0 mi WSW 15.0 mph 19.6 mph N/A   Unknown
5:55 PM 53.6 °F - 30.2 °F 41% 30.00 in 10.0 mi West 11.5 mph 16.1 mph N/A   Unknown
6:15 PM 53.6 °F - 30.2 °F 41% 30.00 in 10.0 mi WSW 11.5 mph - N/A   Unknown
6:35 PM 55.4 °F - 30.2 °F 38% 30.00 in 10.0 mi WSW 10.4 mph 19.6 mph N/A   Unknown
6:55 PM 53.6 °F - 30.2 °F 41% 30.00 in 10.0 mi West 9.2 mph - N/A   Unknown
7:15 PM 53.6 °F - 30.2 °F 41% 29.99 in 10.0 mi West 6.9 mph 16.1 mph N/A   Unknown
7:35 PM 53.6 °F - 30.2 °F 41% 29.99 in 10.0 mi WSW 9.2 mph - N/A   Unknown
7:55 PM 51.8 °F - 30.2 °F 44% 29.99 in 10.0 mi WSW 3.5 mph - N/A   Unknown
8:15 PM 51.8 °F - 30.2 °F 44% 29.99 in 10.0 mi WSW 3.5 mph - N/A   Unknown
8:35 PM 51.8 °F - 30.2 °F 44% 30.00 in 10.0 mi Calm Calm - N/A   Unknown
8:55 PM 50.0 °F - 30.2 °F 47% 30.00 in 10.0 mi Calm Calm - N/A   Unknown
9:15 PM 46.4 °F - 30.2 °F 53% 30.01 in 10.0 mi Calm Calm - N/A   Unknown
9:35 PM 50.0 °F - 30.2 °F 47% 30.01 in 10.0 mi Calm Calm - N/A   Unknown
9:55 PM 50.0 °F - 30.2 °F 47% 30.01 in 10.0 mi Calm Calm - N/A   Unknown
10:15 PM 44.6 °F - 32.0 °F 61% 30.02 in 10.0 mi Calm Calm - N/A   Unknown
10:35 PM 44.6 °F - 32.0 °F 61% 30.02 in 10.0 mi Calm Calm - N/A   Unknown
10:55 PM 42.8 °F - 32.0 °F 66% 30.02 in 10.0 mi Calm Calm - N/A   Unknown
11:15 PM 41.0 °F - 30.2 °F 65% 30.02 in 10.0 mi Calm Calm - N/A   Unknown
11:35 PM 39.2 °F 35.9 °F 32.0 °F 75% 30.03 in 10.0 mi North 4.6 mph - N/A   Unknown
11:55 PM 41.0 °F - 32.0 °F 70% 30.04 in 10.0 mi Calm Calm - N/A   Unknown